Location: Mohawk View
(42.7837°N, 73.7885°W)
Time: 16:21:07
(UTC+00:00)

FALCON 9 DEB - Pass Details

Date: 17 June 2021
Orbit: 358 x 373 km, 53.0° (Epoch: 01 August)

Event Time Altitude Azimuth Distance (km) Brightness Sun altitude
Rises 08:39:38 0° 309° (NW) 2,247 6.6 -6.2°
Reaches altitude 10° 08:41:46 10° 316° (NW) 1,389 5.7 -5.9°
Maximum altitude 08:44:45 44° 30° (NNE) 533 4.2 -5.5°
Drops below altitude 10° 08:47:42 10° 105° (ESE) 1,371 6.2 -5.1°
Sets 08:49:47 0° 112° (ESE) 2,213 7.2 -4.8°
